Flag for Russia Weather past 2 weeks in Astrakhan, Russia

Now
68 °F

Clear.


Feels Like: 68 °F
Forecast: 58 / 83 °F
Wind: 1 mph from North

Location: Astrakhan

Current Time: Aug 30, 2014 at 10:17:08 PM

Latest Report: Aug 30, 2014 at 9:30 PM


Visibility: 10 mi

Pressure: 30.07 "Hg

Humidity: 40%

Dew point: 43 °F

Location of AstrakhanLocation

Historic Weather in Astrakhan — Graph

°F

Astrakhan temperature yesterday

Maximum temperature yesterday: 88 °F (at 4:30 PM)
Minimum temperature yesterday: 72 °F (at 3:00 AM)
Average temperature yesterday: 80 °F

Past Weeks' High & Low Weather Summary

 TemperatureHumidityPressure
High100 °F (Aug 18, 1:30 PM)94% (Aug 20, 4:00 AM)30.07 "Hg (Aug 20, 4:00 AM)
Low64 °F (Aug 30, 7:30 AM)14% (Aug 16, 3:00 PM)29.68 "Hg (Aug 28, 5:30 PM)
Average82 °F51%29.85 "Hg
* Reported Aug 15 9:00 PM — Aug 30 9:00 PM, Astrakhan, Weather by CustomWeather, © 2014

Note: Actual official high and low records may vary slightly from our data, if they occured in-between our weather recording intervals... More about our weather records

Advertising

Astrakhan weather history for previous 24 hours

 ConditionsComfort  
Time TempWeatherWind HumidityBarometerVisibility
9:00 PM
Aug 30
72 °FClear.1 mph36%30.04 "Hg10 mi
8:30 PM72 °FSunny.No wind36%30.04 "Hg10 mi
8:00 PM77 °FSunny.3 mph28%30.04 "Hg10 mi
7:30 PM79 °FSunny.1 mph26%30.04 "Hg10 mi
7:00 PM79 °FSunny.3 mph26%30.01 "Hg10 mi
6:30 PM82 °FSunny.3 mph20%30.01 "Hg10 mi
6:00 PM82 °FPassing clouds.6 mph19%30.01 "HgN/A
5:30 PM82 °FPassing clouds.8 mph20%30.01 "HgN/A
5:00 PM82 °FScattered clouds.10 mph21%30.01 "HgN/A
4:30 PM84 °FScattered clouds.8 mph19%30.04 "HgN/A
4:00 PM84 °FScattered clouds.8 mph19%30.04 "HgN/A
3:30 PM84 °FScattered clouds.8 mph19%30.04 "HgN/A
3:00 PM84 °FScattered clouds.8 mph20%30.04 "HgN/A
2:30 PM82 °FScattered clouds.13 mph21%30.04 "HgN/A
2:00 PM81 °FScattered clouds.8 mph23%30.04 "HgN/A
1:30 PM81 °FScattered clouds.8 mph28%30.04 "HgN/A
1:00 PM81 °FScattered clouds.3 mph26%30.07 "HgN/A
12:30 PM81 °FScattered clouds.10 mph30%30.07 "HgN/A
12:00 PM77 °FScattered clouds.10 mph42%30.07 "HgN/A
11:30 AM77 °FScattered clouds.13 mph44%30.07 "HgN/A
11:00 AM75 °FSunny.10 mph50%30.07 "Hg10 mi
10:30 AM73 °FPassing clouds.8 mph53%30.07 "HgN/A
10:00 AM72 °FPartly sunny.10 mph57%30.07 "HgN/A
9:30 AM68 °FBroken clouds.10 mph69%30.07 "HgN/A
9:00 AM66 °FBroken clouds.8 mph78%30.07 "HgN/A
8:30 AM64 °FBroken clouds.6 mph83%30.07 "HgN/A
8:00 AM64 °FBroken clouds.8 mph83%30.07 "HgN/A
7:30 AM64 °FSprinkles. Broken clouds.6 mph83%30.04 "HgN/A
7:00 AM66 °FSprinkles. Partly cloudy.6 mph83%30.04 "HgN/A
6:30 AM66 °FPartly cloudy.No wind78%30.01 "HgN/A
6:00 AM68 °FSprinkles. Partly cloudy.1 mph69%30.01 "HgN/A
5:30 AM68 °FPartly cloudy.1 mph69%30.01 "HgN/A
5:00 AM68 °FSprinkles. Partly cloudy.3 mph64%29.98 "HgN/A
4:30 AM70 °FPartly cloudy.6 mph57%29.98 "HgN/A
4:00 AM72 °FPartly cloudy.10 mph53%29.98 "HgN/A
3:30 AM72 °FPartly cloudy.6 mph50%29.98 "HgN/A
3:00 AM72 °FPartly cloudy.6 mph47%29.95 "HgN/A
2:30 AM72 °FPartly cloudy.3 mph47%29.95 "HgN/A
2:00 AM72 °FPartly cloudy.1 mph50%29.95 "HgN/A
1:30 AM73 °FThundershowers. Partly cloudy.10 mph44%29.95 "HgN/A
1:00 AM72 °FThundershowers. Partly cloudy.10 mph50%29.95 "HgN/A
11:00 PM
Aug 29
75 °FPassing clouds.6 mph41%29.92 "HgN/A
10:30 PM75 °FPassing clouds.6 mph39%29.92 "HgN/A
10:00 PM77 °FPassing clouds.8 mph39%29.92 "HgN/A
Weather by CustomWeather, © 2014

See weather overviewHow to use our weather pages